Location: La Coruña
(43.3623°N, 8.4115°W)
Time: 21:17:57
(UTC+01:00)

STARLINK-1092 - Pass Details

Date: 18 January 2020
Orbit: 348 x 351 km, 53.0° (Epoch: 18 February)

Event Time Altitude Azimuth Distance (km) Brightness Sun altitude
Rises 20:15:34 0° 262° (W) 2,158 8.3 -19.5°
Reaches altitude 10° 20:17:45 10° 275° (W) 1,318 6.7 -19.9°
Enters shadow 20:20:13 27° 332° (NNW) 725 4.4 -20.4°
